H1 CPF 2 NER 2024 7 12 9 194 01 glonass147 H2 2311401 9147 57517 2024 7 12 0 0 0 2024 7 15 23 45 0 900 1 1 0 0 0 1 H9 10 0 60503 0.00000 0 -22737182.241 60772.510 11556290.771 10 0 60503 900.00000 0 -21170679.381 -240356.317 14227526.074 10 0 60503 1800.00000 0 -19337534.632 -761284.143 16622411.527 10 0 60503 2700.00000 0 -17296087.701 -1525341.423 18694555.862 10 0 60503 3600.00000 0 -15110097.597 -2544162.596 20403865.432 10 0 60503 4500.00000 0 -12846187.155 -3816970.338 21717309.901 10 0 60503 5400.00000 0 -10571188.914 -5330388.996 22609549.334 10 0 60503 6300.00000 0 -8349502.467 -7058794.964 23063411.842 10 0 60503 7200.00000 0 -6240572.383 -8965189.431 23070213.866 10 0 60503 8100.00000 0 -4296590.226 -11002557.437 22629918.101 10 0 60503 9000.00000 0 -2560514.549 -13115657.181 21751126.888 10 0 60503 9900.00000 0 -1064489.397 -15243165.964 20450911.799 10 0 60503 10800.00000 0 171274.759 -17320094.491 18754482.859 10 0 60503 11700.00000 0 1139112.762 -19280370.299 16694703.584 10 0 60503 12600.00000 0 1843985.171 -21059483.963 14311460.679 10 0 60503 13500.00000 0 2303025.127 -22597088.985 11650899.768 10 0 60503 14400.00000 0 2544571.502 -23839447.926 8764540.975 10 0 60503 15300.00000 0 2606729.315 -24741623.298 5708290.480 10 0 60503 16200.00000 0 2535518.152 -25269322.006 2541366.257 10 0 60503 17100.00000 0 2382686.470 -25400316.119 -674842.018 10 0 60503 18000.00000 0 2203283.892 -25125380.056 -3877957.370 10 0 60503 18900.00000 0 2053093.845 -24448704.185 -7005821.598 10 0 60503 19800.00000 0 1986035.138 -23387766.627 -9997699.872 10 0 60503 20700.00000 0 2051642.562 -21972667.507 -12795460.319 10 0 60503 21600.00000 0 2292733.591 -20244952.359 -15344705.522 10 0 60503 22500.00000 0 2743360.705 -18255973.036 -17595833.695 10 0 60503 23400.00000 0 3427137.050 -16064853.641 -19505008.469 10 0 60503 24300.00000 0 4356007.575 -13736145.901 -21035018.106 10 0 60503 25200.00000 0 5529519.198 -11337271.477 -22156007.064 10 0 60503 26100.00000 0 6934622.559 -8935857.591 -22846065.186 10 0 60503 27000.00000 0 8546015.606 -6597077.006 -23091662.641 10 0 60503 27900.00000 0 10327016.403 -4381103.306 -22887921.664 10 0 60503 28800.00000 0 12230930.144 -2340787.656 -22238719.276 10 0 60503 29700.00000 0 14202854.377 -519653.997 -21156618.445 10 0 60503 30600.00000 0 16181847.736 1049703.699 -19662628.469 10 0 60503 31500.00000 0 18103371.824 2346755.351 -17785798.748 10 0 60503 32400.00000 0 19901904.029 3363652.883 -15562653.493 10 0 60503 33300.00000 0 21513611.508 4105307.363 -13036478.151 10 0 60503 34200.00000 0 22878973.596 4588922.962 -10256471.506 10 0 60503 35100.00000 0 23945241.893 4843008.654 -7276780.304 10 0 60503 36000.00000 0 24668633.945 4905910.897 -4155435.751 10 0 60503 36900.00000 0 25016167.693 4823930.944 -953213.514 10 0 60503 37800.00000 0 24967059.132 4649108.204 2267559.552 10 0 60503 38700.00000 0 24513624.298 4436765.216 5444227.625 10 0 60503 39600.00000 0 23661647.856 4242919.803 8515032.149 10 0 60503 40500.00000 0 22430203.371 4121675.360 11420317.310 10 0 60503 41400.00000 0 20850933.573 4122700.823 14103690.690 10 0 60503 42300.00000 0 18966821.768 4288907.571 16513116.190 10 0 60503 43200.00000 0 16830506.830 4654421.777 18601918.173 10 0 60503 44100.00000 0 14502213.022 5242937.746 20329677.860 10 0 60503 45000.00000 0 12047381.675 6066521.402 21663005.491 10 0 60503 45900.00000 0 9534103.588 7124913.905 22576174.480 10 0 60503 46800.00000 0 7030458.711 8405364.327 23051606.604 10 0 60503 47700.00000 0 4601872.995 9882998.203 23080200.138 10 0 60503 48600.00000 0 2308600.966 11521706.593 22661495.807 10 0 60503 49500.00000 0 203436.997 13275518.857 21803678.243 10 0 60503 50400.00000 0 -1670251.464 15090402.427 20523413.523 10 0 60503 51300.00000 0 -3280088.903 16906415.397 18845526.111 10 0 60503 52200.00000 0 -4605791.732 18660123.226 16802521.233 10 0 60503 53100.00000 0 -5639759.164 20287179.865 14433961.401 10 0 60503 54000.00000 0 -6387131.660 21724966.692 11785708.351 10 0 60503 54900.00000 0 -6865315.655 22915180.025 8909044.050 10 0 60503 55800.00000 0 -7102995.111 23806259.692 5859686.845 10 0 60503 56700.00000 0 -7138671.841 24355557.430 2696720.832 10 0 60503 57600.00000 0 -7018796.103 24531154.268 -518541.630 10 0 60503 58500.00000 0 -6795566.196 24313250.290 -3723742.766 10 0 60503 59400.00000 0 -6524489.795 23695067.750 -6856685.036 10 0 60503 60300.00000 0 -6261809.991 22683228.606 -9856536.392 10 0 60503 61200.00000 0 -6061904.886 21297589.379 -12665011.659 10 0 60503 62100.00000 0 -5974770.993 19570538.889 -15227506.906 10 0 60503 63000.00000 0 -6043697.359 17545786.873 -17494164.530 10 0 60503 63900.00000 0 -6303229.578 15276692.880 -19420847.904 10 0 60503 64800.00000 0 -6777510.798 12824204.334 -20970006.367 10 0 60503 65700.00000 0 -7479071.079 10254488.855 -22111413.269 10 0 60503 66600.00000 0 -8408117.675 7636359.086 -22822762.321 10 0 60503 67500.00000 0 -9552357.748 5038596.940 -23090110.181 10 0 60503 68400.00000 0 -10887362.597 2527288.493 -22908156.201 10 0 60503 69300.00000 0 -12377459.619 163280.496 -22280353.362 10 0 60503 70200.00000 0 -13977115.794 -2000135.534 -21218847.701 10 0 60503 71100.00000 0 -15632755.628 -3919215.185 -19744246.869 10 0 60503 72000.00000 0 -17284937.809 -5561345.989 -17885221.820 10 0 60503 72900.00000 0 -18870799.423 -6906159.382 -15677949.019 10 0 60503 73800.00000 0 -20326664.899 -7946123.847 -13165403.794 10 0 60503 74700.00000 0 -21590709.534 -8686595.255 -10396518.640 10 0 60503 75600.00000 0 -22605564.899 -9145323.504 -7425223.169 10 0 60503 76500.00000 0 -23320755.634 -9351437.697 -4309384.946 10 0 60503 77400.00000 0 -23694864.235 -9343954.342 -1109672.744 10 0 60503 78300.00000 0 -23697331.976 -9169873.412 2111634.652 10 0 60503 79200.00000 0 -23309819.665 -8881944.612 5291869.780 10 0 60503 80100.00000 0 -22527070.790 -8536200.106 8369203.068 10 0 60503 81000.00000 0 -21357240.892 -8189359.691 11283849.836 10 0 60503 81900.00000 0 -19821679.746 -7896219.418 13979233.623 10 0 60503 82800.00000 0 -17954176.125 -7707134.961 16403082.875 10 0 60503 83700.00000 0 -15799697.509 -7665706.511 18508439.827 10 0 60503 84600.00000 0 -13412678.119 -7806762.916 20254562.535 10 0 60503 85500.00000 0 -10854927.221 -8154729.780 21607703.441 10 0 60504 0.00000 0 -8193245.319 -8722449.626 22541750.480 10 0 60504 900.00000 0 -5496845.723 -9510503.484 23038720.089 10 0 60504 1800.00000 0 -2834691.587 -10507061.036 23089092.697 10 0 60504 2700.00000 0 -272853.151 -11688266.298 22691987.098 10 0 60504 3600.00000 0 2128003.122 -13019141.913 21855169.912 10 0 60504 4500.00000 0 4314892.405 -14454974.759 20594901.100 10 0 60504 5400.00000 0 6244463.506 -15943125.479 18935618.655 10 0 60504 6300.00000 0 7884545.764 -17425187.122 16909468.326 10 0 60504 7200.00000 0 9215228.250 -18839403.646 14555686.981 10 0 60504 8100.00000 0 10229427.833 -20123248.162 11919850.737 10 0 60504 9000.00000 0 10932923.644 -21216054.016 9053001.426 10 0 60504 9900.00000 0 11343857.346 -22061589.232 6010667.350 10 0 60504 10800.00000 0 11491720.769 -22610466.894 2851796.322 10 0 60504 11700.00000 0 11415873.657 -22822290.437 -362379.155 10 0 60504 12600.00000 0 11163653.951 -22667443.442 -3569523.118 10 0 60504 13500.00000 0 10788160.215 -22128448.103 -6707401.325 10 0 60504 14400.00000 0 10345799.623 -21200834.232 -9715087.149 10 0 60504 15300.00000 0 9893705.040 -19893480.931 -12534144.696 10 0 60504 16200.00000 0 9487130.392 -18228415.069 -15109766.041 10 0 60504 17100.00000 0 9176934.673 -16240073.313 -17391840.149 10 0 60504 18000.00000 0 9007261.433 -13974057.061 -19335932.371 10 0 60504 18900.00000 0 9013512.519 -11485430.895 -20904155.101 10 0 60504 19800.00000 0 9220702.546 -8836634.354 -22065912.287 10 0 60504 20700.00000 0 9642264.696 -6095093.177 -22798502.869 10 0 60504 21600.00000 0 10279359.391 -3330628.789 -23087570.987 10 0 60504 22500.00000 0 11120716.339 -612773.400 -22927393.709 10 0 60504 23400.00000 0 12143017.851 1991897.709 -22321000.195 10 0 60504 24300.00000 0 13311808.434 4422305.829 -21280119.402 10 0 60504 25200.00000 0 14582893.339 6625174.689 -19824956.824 10 0 60504 26100.00000 0 15904167.823 8557006.482 -17983804.105 10 0 60504 27000.00000 0 17217800.427 10185645.807 -15792488.742 10 0 60504 27900.00000 0 18462678.299 11491366.564 -13293674.352 10 0 60504 28800.00000 0 19577011.140 12467436.961 -10536025.167 10 0 60504 29700.00000 0 20500983.359 13120139.907 -7573251.322 10 0 60504 30600.00000 0 21179341.773 13468249.260 -4463054.069 10 0 60504 31500.00000 0 21563808.769 13541985.512 -1265992.337 10 0 60504 32400.00000 0 21615218.265 13381496.767 1955706.289 10 0 60504 33300.00000 0 21305283.671 13034930.986 5139365.921 10 0 60504 34200.00000 0 20617922.846 12556182.845 8223089.160 10 0 60504 35100.00000 0 19550084.024 12002412.112 11146965.540 10 0 60504 36000.00000 0 18112038.059 11431439.890 13854237.452 10 0 60504 36900.00000 0 16327124.991 10899133.795 16292400.538 10 0 60504 37800.00000 0 14230966.037 10456893.074 18414217.293 10 0 60504 38700.00000 0 11870174.409 10149339.906 20178624.695 10 0 60504 39600.00000 0 9300619.198 10012313.905 21551519.142 10 0 60504 40500.00000 0 6585314.834 10071253.639 22506404.623 10 0 60504 41400.00000 0 3792023.742 10340032.399 23024892.901 10 0 60504 42300.00000 0 990671.256 10820296.268 23097047.318 10 0 60504 43200.00000 0 -1749320.871 11501331.496 22721564.813 10 0 60504 44100.00000 0 -4361673.143 12360466.246 21905793.530 10 0 60504 45000.00000 0 -6785751.321 13363989.655 20665586.330 10 0 60504 45900.00000 0 -8968831.749 14468549.883 19024993.216 10 0 60504 46800.00000 0 -10868036.824 15622973.074 17015798.479 10 0 60504 47700.00000 0 -12451861.900 16770427.801 14676910.967 10 0 60504 48600.00000 0 -13701231.667 17850845.135 12053618.510 10 0 60504 49500.00000 0 -14610043.256 18803493.839 9196719.949 10 0 60504 50400.00000 0 -15185174.335 19569603.371 6161550.591 10 0 60504 51300.00000 0 -15445956.511 20094925.133 3006919.005 10 0 60504 52200.00000 0 -15423136.474 20332124.558 -206025.072 10 0 60504 53100.00000 0 -15157368.619 20242903.264 -3414970.329 10 0 60504 54000.00000 0 -14697302.554 19799761.469 -6557648.548 10 0 60504 54900.00000 0 -14097345.882 18987325.480 -9573041.063 10 0 60504 55800.00000 0 -13415196.596 17803183.183 -12402563.629 10 0 60504 56700.00000 0 -12709249.062 16258190.771 -14991206.439 10 0 60504 57600.00000 0 -12035983.168 14376235.932 -17288606.871 10 0 60504 58500.00000 0 -11447447.200 12193465.756 -19250033.797 10 0 60504 59400.00000 0 -10988941.068 9757009.773 -20837263.915 10 0 60504 60300.00000 0 -10696998.278 7123249.951 -22019332.717 10 0 60504 61200.00000 0 -10597752.517 4355708.449 -22773145.021 10 0 60504 62100.00000 0 -10705758.596 1522640.104 -23083932.791 10 0 60504 63000.00000 0 -11023318.401 -1305570.931 -22945550.857 10 0 60504 63900.00000 0 -11540341.200 -4059102.462 -22360604.265 10 0 60504 64800.00000 0 -12234745.050 -6671361.779 -21340404.257 10 0 60504 65700.00000 0 -13073383.140 -9081518.484 -19904753.192 10 0 60504 66600.00000 0 -14013456.520 -11236797.134 -18081562.088 10 0 60504 67500.00000 0 -15004353.907 -13094434.188 -15906307.851 10 0 60504 68400.00000 0 -15989840.893 -14623217.735 -13421340.506 10 0 60504 69300.00000 0 -16910505.798 -15804545.969 -10675053.954 10 0 60504 70200.00000 0 -17706358.233 -16632960.807 -7720936.644 10 0 60504 71100.00000 0 -18319469.767 -17116135.215 -4616521.222 10 0 60504 72000.00000 0 -18696544.108 -17274316.132 -1422254.417 10 0 60504 72900.00000 0 -18791307.215 -17139248.024 1799689.790 10 0 60504 73800.00000 0 -18566615.460 -16752624.259 4986629.530 10 0 60504 74700.00000 0 -17996192.108 -16164133.477 8076602.061 10 0 60504 75600.00000 0 -17065918.380 -15429185.243 11009573.627 10 0 60504 76500.00000 0 -15774624.509 -14606412.555 13728607.940 10 0 60504 77400.00000 0 -14134347.520 -13755057.870 16180970.223 10 0 60504 78300.00000 0 -12170045.103 -12932353.712 18319145.440 10 0 60504 79200.00000 0 -9918777.836 -12191008.558 20101751.473 10 0 60504 80100.00000 0 -7428394.162 -11576903.687 21494330.350 10 0 60504 81000.00000 0 -4755773.055 -11127097.268 22470003.363 10 0 60504 81900.00000 0 -1964697.330 -10868218.603 23009978.703 10 0 60504 82800.00000 0 876554.496 -10815318.850 23103903.076 10 0 60504 83700.00000 0 3697798.693 -10971225.305 22750051.726 10 0 60504 84600.00000 0 6429612.955 -11326425.343 21955354.149 10 0 60504 85500.00000 0 9005970.075 -11859484.166 20735255.586 10 0 60505 0.00000 0 11366730.949 -12537978.418 19113417.400 10 0 60505 900.00000 0 13459896.462 -13319906.938 17121261.007 10 0 60505 1800.00000 0 15243523.288 -14155518.878 14797365.929 10 0 60505 2700.00000 0 16687229.703 -14989484.302 12186729.967 10 0 60505 3600.00000 0 17773226.765 -15763315.982 9339906.908 10 0 60505 4500.00000 0 18496834.091 -16417941.694 6312036.700 10 0 60505 5400.00000 0 18866459.135 -16896319.387 3161786.039 10 0 60505 6300.00000 0 18903041.191 -17145985.499 -49780.928 10 0 60505 7200.00000 0 18638983.540 -17121429.128 -3260380.486 10 0 60505 8100.00000 0 18116618.537 -16786191.613 -6407713.376 10 0 60505 9000.00000 0 17386270.035 -16114602.284 -9430671.794 10 0 60505 9900.00000 0 16503994.531 -15093076.060 -12270525.887 10 0 60505 10800.00000 0 15529095.994 -13720916.677 -14872066.514 10 0 60505 11700.00000 0 14521519.094 -12010590.007 -17184681.830 10 0 60505 12600.00000 0 13539230.688 -9987453.922 -19163346.344 10 0 60505 13500.00000 0 12635700.198 -7688954.035 -20769502.888 10 0 60505 14400.00000 0 11857585.462 -5163317.177 -21971820.012 10 0 60505 15300.00000 0 11242721.939 -2467795.363 -22746809.589 10 0 60505 16200.00000 0 10818500.539 333467.904 -23079292.217 10 0 60505 17100.00000 0 10600703.013 3171861.193 -22962700.912 10 0 60505 18000.00000 0 10592844.570 5976918.457 -22399216.657 10 0 60505 18900.00000 0 10786051.956 8679013.763 -21399732.662 10 0 60505 19800.00000 0 11159482.595 11212025.549 -19983647.474 10 0 60505 20700.00000 0 11681267.384 13515859.434 -18178490.463 10 0 60505 21600.00000 0 12309937.451 15538724.387 -16019386.578 10 0 60505 22500.00000 0 12996274.443 17239067.264 -13548370.553 10 0 60505 23400.00000 0 13685505.740 18587084.963 -10813563.903 10 0 60505 24300.00000 0 14319751.071 19565751.234 -7868231.022 10 0 60505 25200.00000 0 14840616.154 20171315.778 -4769733.266 10 0 60505 26100.00000 0 15191822.561 20413255.620 -1578402.245 10 0 60505 27000.00000 0 15321761.424 20313682.151 1643644.745 10 0 60505 27900.00000 0 15185861.905 19906230.363 4833723.011 10 0 60505 28800.00000 0 14748673.376 19234478.816 7929807.598 10 0 60505 29700.00000 0 13985572.657 18349968.740 10871744.470 10 0 60505 30600.00000 0 12884023.829 17309907.403 13602421.492 10 0 60505 31500.00000 0 11444337.326 16174653.970 16068876.064 10 0 60505 32400.00000 0 9679896.398 15005094.725 18223317.960 10 0 60505 33300.00000 0 7616841.485 13860018.658 20024048.003 10 0 60505 34200.00000 0 5293225.852 12793603.774 21436255.574 10 0 60505 35100.00000 0 2757677.714 11853119.199 22432680.645 10 0 60505 36000.00000 0 67624.431 11076938.596 22994128.812 10 0 60505 36900.00000 0 -2712847.829 10492946.966 23109830.678 10 0 60505 37800.00000 0 -5515410.805 10117406.214 22777639.852 10 0 60505 38700.00000 0 -8270088.102 9954325.623 22004066.697 10 0 60505 39600.00000 0 -10907920.113 9995362.452 20804147.809 10 0 60505 40500.00000 0 -13363590.986 10220255.894 19201154.011 10 0 60505 41400.00000 0 -15577910.300 10597775.696 17226142.345 10 0 60505 42300.00000 0 -17500047.997 11087145.500 14917360.239 10 0 60505 43200.00000 0 -19089431.149 11639881.356 12319512.614 10 0 60505 44100.00000 0 -20317224.846 12201968.599 9482905.134 10 0 60505 45000.00000 0 -21167336.368 12716286.121 6462479.218 10 0 60505 45900.00000 0 -21636901.337 13125176.507 3316756.525 10 0 60505 46800.00000 0 -21736231.811 13373054.195 106712.519 10 0 60505 47700.00000 0 -21488228.528 13408941.799 -3105399.638 10 0 60505 48600.00000 0 -20927281.772 13188827.418 -6257252.445 10 0 60505 49500.00000 0 -20097706.818 12677742.877 -9287651.570 10 0 60505 50400.00000 0 -19051779.359 11851474.234 -12137723.953 10 0 60505 51300.00000 0 -17847453.272 10697831.044 -14752063.284 10 0 60505 52200.00000 0 -16545856.483 9217419.186 -17079810.337 10 0 60505 53100.00000 0 -15208670.193 7423882.749 -19075646.756 10 0 60505 54000.00000 0 -13895501.815 5343602.794 -20700682.658 10 0 60505 54900.00000 0 -12661362.213 3014863.424 -21923220.408 10 0 60505 55800.00000 0 -11554353.615 486518.178 -22719379.297 10 0 60505 56700.00000 0 -10613665.740 -2183789.336 -23073568.540 10 0 60505 57600.00000 0 -9867964.691 -4931777.806 -22978798.949 10 0 60505 58500.00000 0 -9334242.756 -7688964.925 -22436826.706 10 0 60505 59400.00000 0 -9017177.775 -10385287.665 -21458125.916 10 0 60505 60300.00000 0 -8909029.204 -12951797.407 -20061689.930 10 0 60505 61200.00000 0 -8990075.289 -15323317.688 -18274664.814 10 0 60505 62100.00000 0 -9229572.759 -17440953.732 -16131821.685 10 0 60505 63000.00000 0 -9587198.144 -19254348.833 -13674877.932 10 0 60505 63900.00000 0 -10014909.218 -20723593.193 -10951680.540 10 0 60505 64800.00000 0 -10459147.029 -21820705.324 -8015267.647 10 0 60505 65700.00000 0 -10863284.299 -22530624.253 -4922827.128 10 0 60505 66600.00000 0 -11170215.357 -22851671.404 -1734573.303 10 0 60505 67500.00000 0 -11324976.707 -22795463.749 1487435.364 10 0 60505 68400.00000 0 -11277286.060 -22386283.068 4680513.476 10 0 60505 69300.00000 0 -10983891.271 -21659929.418 7782575.986 10 0 60505 70200.00000 0 -10410628.971 -20662108.686 10733350.698 10 0 60505 71100.00000 0 -9534105.263 -19446423.760 13475551.736 10 0 60505 72000.00000 0 -8342927.220 -18072055.345 15955990.725 10 0 60505 72900.00000 0 -6838433.137 -16601231.116 18126604.185 10 0 60505 73800.00000 0 -5034890.810 -15096590.284 19945377.650 10 0 60505 74700.00000 0 -2959155.569 -13618554.431 21377149.392 10 0 60505 75600.00000 0 -649802.310 -12222814.550 22394279.314 10 0 60505 76500.00000 0 1844232.440 -10958038.741 22977171.366 10 0 60505 77400.00000 0 4465442.260 -9863895.299 23114640.662 10 0 60505 78300.00000 0 7149902.554 -8969472.426 22804119.457 10 0 60505 79200.00000 0 9829693.898 -8292158.990 22051698.942 10 0 60505 80100.00000 0 12435497.613 -7837031.673 20872006.719 10 0 60505 81000.00000 0 14899257.336 -7596772.731 19287922.582 10 0 60505 81900.00000 0 17156797.654 -7552120.798 17330137.957 10 0 60505 82800.00000 0 19150292.547 -7672835.190 15036567.045 10 0 60505 83700.00000 0 20830482.407 -7919132.951 12451620.308 10 0 60505 84600.00000 0 22158548.550 -8243538.336 9625353.374 10 0 60505 85500.00000 0 23107567.927 -8593067.245 6612506.886 10 0 60506 0.00000 0 23663487.832 -8911654.957 3471455.195 10 0 60506 900.00000 0 23825580.319 -9142725.417 263081.706 10 0 60506 1800.00000 0 23606356.555 -9231793.429 -2950393.662 10 0 60506 2700.00000 0 23030945.441 -9128990.460 -6106618.210 10 0 60506 3600.00000 0 22135961.316 -8791406.566 -9144314.076 10 0 60506 4500.00000 0 20967908.112 -8185148.948 -12004467.850 10 0 60506 5400.00000 0 19581186.516 -7287029.074 -14631478.707 10 0 60506 6300.00000 0 18035787.300 -6085805.664 -16974242.444 10 0 60506 7200.00000 0 16394767.502 -4582929.310 -18987149.967 10 0 60506 8100.00000 0 14721615.257 -2792755.403 -20630980.511 10 0 60506 9000.00000 0 13077613.896 -742214.250 -21873671.799 10 0 60506 9900.00000 0 11519316.010 1530049.870 -22690951.772 10 0 60506 10800.00000 0 10096233.573 3975036.672 -23066819.163 10 0 60506 11700.00000 0 8848841.248 6535189.831 -22993863.133 10 0 60506 12600.00000 0 7806976.814 9146565.138 -22473415.243 10 0 60506 13500.00000 0 6988705.987 11741277.426 -21515530.298 10 0 60506 14400.00000 0 6399699.270 14250124.849 -20138795.881 10 0 60506 15300.00000 0 6033146.897 16605281.272 -18369973.798 10 0 60506 16200.00000 0 5870215.054 18742944.438 -16243479.993 10 0 60506 17100.00000 0 5881023.606 20605829.053 -13800712.807 10 0 60506 18000.00000 0 6026103.222 22145400.284 -11089242.611 10 0 60506 18900.00000 0 6258269.369 23323753.888 -8161878.866 10 0 60506 19800.00000 0 6524832.666 24115064.122 -5075633.231 10 0 60506 20700.00000 0 6770050.736 24506538.820 -1890599.749 10 0 60506 21600.00000 0 6937716.285 24498842.045 1331225.106 10 0 60506 22500.00000 0 6973770.444 24105967.396 4527158.483 10 0 60506 23400.00000 0 6828829.420 23354568.443 7635058.466 10 0 60506 24300.00000 0 6460516.466 22282775.866 10594537.827 10 0 60506 25200.00000 0 5835499.744 20938552.499 13348139.886 10 0 60506 26100.00000 0 4931149.481 19377656.892 15842453.204 10 0 60506 27000.00000 0 3736744.267 17661302.137 18029143.484 10 0 60506 27900.00000 0 2254175.598 15853609.063 19865883.111 10 0 60506 28800.00000 0 498121.093 14018960.976 21317161.057 10 0 60506 29700.00000 0 -1504320.899 12219370.568 22354958.614 10 0 60506 30600.00000 0 -3714520.169 10511968.473 22959279.141 10 0 60506 31500.00000 0 -6083690.201 8946717.297 23118522.881 10 0 60506 32400.00000 0 -8554693.692 7564445.093 22829700.855 10 0 60506 33300.00000 0 -11064203.798 6395278.640 22098484.672 10 0 60506 34200.00000 0 -13545132.359 5457540.187 20939091.960 10 0 60506 35100.00000 0 -15929225.562 4757152.028 19374009.933 10 0 60506 36000.00000 0 -18149720.635 4287572.336 17433562.299 10 0 60506 36900.00000 0 -20143954.562 4030263.844 15155327.440 10 0 60506 37800.00000 0 -21855817.663 3955674.959 12583418.356 10 0 60506 38700.00000 0 -23237950.981 4024691.786 9767637.353 10 0 60506 39600.00000 0 -24253596.670 4190499.963 6762520.841 10 0 60506 40500.00000 0 -24878024.644 4400778.119 3626291.785 10 0 60506 41400.00000 0 -25099475.985 4600130.750 419739.217 10 0 60506 42300.00000 0 -24919583.439 4732658.095 -2794954.065 10 0 60506 43200.00000 0 -24353250.949 4744554.540 -5955413.321 10 0 60506 44100.00000 0 -23427996.617 4586625.562 -9000280.063 10 0 60506 45000.00000 0 -22182786.096 4216616.331 -11870403.202 10 0 60506 45900.00000 0 -20666404.523 3601252.707 -14509989.775 10 0 60506 46800.00000 0 -18935434.555 2717907.187 -16867692.626 10 0 60506 47700.00000 0 -17051924.962 1555817.917 -18897613.562 10 0 60506 48600.00000 0 -15080847.045 116807.569 -20560202.100 10 0 60506 49500.00000 0 -13087445.252 -1584530.216 -21823031.985 10 0 60506 50400.00000 0 -11134592.907 -3521186.721 -22661439.949 10 0 60506 51300.00000 0 -9280263.686 -5654623.520 -23059013.863 10 0 60506 52200.00000 0 -7575224.787 -7936152.124 -23007920.370 10 0 60506 53100.00000 0 -6061048.424 -10308751.774 -22509065.105 10 0 60506 54000.00000 0 -4768524.922 -12709250.637 -21572081.881 10 0 60506 54900.00000 0 -3716543.809 -15070780.156 -20215150.508 10 0 60506 55800.00000 0 -2911489.588 -17325400.450 -18464646.279 10 0 60506 56700.00000 0 -2347177.086 -19406787.108 -16354627.546 10 0 60506 57600.00000 0 -2005328.395 -21252866.903 -13926171.073 10 0 60506 58500.00000 0 -1856570.392 -22808291.634 -11226568.073 10 0 60506 59400.00000 0 -1861909.588 -24026646.075 -8308396.819 10 0 60506 60300.00000 0 -1974620.624 -24872297.023 -5228490.338 10 0 60506 61200.00000 0 -2142467.071 -25321805.627 -2046820.106 10 0 60506 62100.00000 0 -2310158.937 -25364843.732 1174681.555 10 0 60506 63000.00000 0 -2421941.257 -25004576.148 4373336.360 10 0 60506 63900.00000 0 -2424202.691 -24257493.485 7486947.442 10 0 60506 64800.00000 0 -2267992.437 -23152703.663 10455014.349 10 0 60506 65700.00000 0 -1911337.992 -21730713.061 13219911.306 10 0 60506 66600.00000 0 -1321265.125 -20041749.819 15728005.405 10 0 60506 67500.00000 0 -475434.404 -18143700.839 17930692.987 10 0 60506 68400.00000 0 636674.784 -16099749.869 19785334.555 10 0 60506 69300.00000 0 2013082.534 -13975816.106 21256070.831 10 0 60506 70200.00000 0 3639157.567 -11837900.472 22314505.295 10 0 60506 71100.00000 0 5488003.540 -9749449.902 22940241.236 10 0 60506 72000.00000 0 7521366.540 -7768848.640 23121264.269 10 0 60506 72900.00000 0 9691026.254 -5947139.746 22854164.151 10 0 60506 73800.00000 0 11940613.542 -4326069.994 22144192.617 10 0 60506 74700.00000 0 14207779.654 -2936537.819 21005156.785 10 0 60506 75600.00000 0 16426627.975 -1797507.088 19459150.521 10 0 60506 76500.00000 0 18530308.490 -915430.275 17536128.821 10 0 60506 77400.00000 0 20453668.285 -284203.669 15273333.023 10 0 60506 78300.00000 0 22135849.020 114344.650 12714577.199 10 0 60506 79200.00000 0 23522724.211 309455.311 9909408.602 10 0 60506 80100.00000 0 24569075.387 339968.933 6912157.416 10 0 60506 81000.00000 0 25240416.750 252450.115 3780893.246 10 0 60506 81900.00000 0 25514392.074 98983.035 576307.693 10 0 60506 82800.00000 0 25381685.147 -65268.516 -2639455.957 10 0 60506 83700.00000 0 24846405.030 -184633.752 -5804003.652 10 0 60506 84600.00000 0 23925929.196 -205531.402 -8855899.053 10 0 60506 85500.00000 0 22650210.240 -78980.051 -11735856.037 99